Flag for U.S.A. Weather past 2 weeks in El Paso, Texas, U.S.A.

Now
51 °F

Partly sunny.


Feels Like: 49 °F
Forecast: 40 / 56 °F
Wind: 6 mph from Southeast

Location: El Paso International Airport

Current Time: Dec 18, 2014 at 1:02:38 PM

Latest Report: Dec 18, 2014 at 11:51 AM


Visibility: 10 mi

Pressure: 30.04 "Hg

Humidity: 56%

Dew point: 36 °F

Location of El PasoLocation

Historic Weather in El Paso — Graph

°F

El Paso temperature yesterday

Maximum temperature yesterday: 61 °F (at 2:51 PM)
Minimum temperature yesterday: 35 °F (at 5:51 AM)
Average temperature yesterday: 49 °F

Past Weeks' High & Low Weather Summary

 TemperatureHumidityPressure
High71 °F (Dec 3, 2:51 PM)89% (Dec 10, 6:51 AM)30.28 "Hg (Dec 10, 6:51 AM)
Low34 °F (Dec 15, 6:51 AM)18% (Dec 14, 8:51 PM)29.74 "Hg (Dec 13, 4:51 PM)
Average54 °F50%30.03 "Hg
* Reported Dec 3 11:51 AM — Dec 18 11:51 AM, El Paso, Weather by CustomWeather, © 2014

Note: Actual official high and low records may vary slightly from our data, if they occured in-between our weather recording intervals... More about our weather records

Advertising

El Paso weather history for previous 24 hours

 ConditionsComfort  
Time TempWeatherWind HumidityBarometerVisibility
11:51 AM
Dec 18
51 °FPartly sunny.6 mph56%30.04 "Hg10 mi
10:51 AM49 °FBroken clouds.5 mph59%30.08 "Hg10 mi
9:51 AM46 °FBroken clouds.5 mph66%30.09 "Hg10 mi
8:51 AM48 °FPassing clouds.No wind63%30.07 "Hg10 mi
7:51 AM38 °FPassing clouds.3 mph79%30.07 "Hg10 mi
6:51 AM38 °FPassing clouds.5 mph83%30.07 "Hg10 mi
5:51 AM37 °FPassing clouds.5 mph82%30.06 "Hg10 mi
4:51 AM40 °FPassing clouds.7 mph77%30.03 "Hg10 mi
3:51 AM41 °FPassing clouds.3 mph76%30.04 "Hg10 mi
2:51 AM42 °FPassing clouds.6 mph73%30.04 "Hg10 mi
1:51 AM41 °FPassing clouds.9 mph76%30.04 "Hg10 mi
12:51 AM41 °FPassing clouds.3 mph74%30.03 "Hg10 mi
11:51 PM
Dec 17
43 °FPassing clouds.3 mph71%30.04 "Hg10 mi
10:51 PM43 °FPassing clouds.7 mph71%30.05 "Hg10 mi
9:51 PM47 °FPassing clouds.5 mph64%30.03 "Hg10 mi
8:51 PM49 °FPassing clouds.5 mph59%30.03 "Hg10 mi
7:51 PM49 °FPassing clouds.No wind59%30.03 "Hg10 mi
6:51 PM52 °FPassing clouds.13 mph53%30.03 "Hg10 mi
5:51 PM55 °FPassing clouds.16 mph44%29.99 "Hg10 mi
4:51 PM58 °FScattered clouds.22 mph36%29.95 "Hg10 mi
3:51 PM59 °FScattered clouds.20 mph33%29.92 "Hg10 mi
2:51 PM61 °FScattered clouds.17 mph30%29.91 "Hg10 mi
1:51 PM60 °FScattered clouds.26 mph32%29.91 "Hg10 mi
Weather by CustomWeather, © 2014

See weather overviewHow to use our weather pages